OneWeb SL0157

operational
NORAD ID: 48055 Int'l Des: 2021-025 Owner: ONEWEBN Country: UK Constellation: oneweb
LEOCIRCULARPOLARONEWEB_TYPE

About OneWeb SL0157

Description loading...

Live Position

Loading 3D Globe...

Upcoming Passes

Altitude History

Altitude vs Time

uPlot chart will show altitude changes over time

Two-Line Element Set

1 48055U 21025P 25258.60966119 .00000218 00000-0 56339-3 0 9992
2 48055 87.9037 14.7612 0002002 111.8787 248.2555 13.13470782217520
Epoch: Sep 15, 2025 • Age: 13 hours

Current Status

Altitude 1215.8 km
Velocity 7.25 km/s
Sub-Earth Point -11.90°S, 31.66°W
Launch Date Mar 25, 2021
Age 4.4 years
Type internet

Technical Details

Classification Payload
Mass 148.00 kg
Dry Mass 140.00 kg
Total Mass 148.00 kg
Length 1.30 m
Diameter 1.00 m
Span 5.00 m
Shape Trapezoid+2 pan
Manufacturer ONEWUS
Bus Type ARROW
Phase Status In Orbit
Owner/State ONEWEBN/UK

Large Constellations

Loading constellations...